MACSAT 2 (M 2) 1 20608U 90043B 13145.15754187 .00000550 00000-0 77260-4 0 9620 2 20608 89.7540 35.8027 0091556 218.5759 302.7274 14.73190423234939 TUBSAT A 1 21577U 91050D 13145.48623704 .00000169 00000-0 69646-4 0 6690 2 21577 98.6618 109.7244 0007410 82.9013 65.0489 14.38878025147004 S80/T 1 22078U 92052C 13145.50528667 -.00000079 00000-0 -66943-4 0 3253 2 22078 66.0834 186.2829 0014400 309.2186 155.7492 12.86756485976795 HEALTHSAT 1 1 22827U 93061E 13145.18761066 .00000217 00000-0 10001-3 0 4225 2 22827 98.6132 92.1993 0008014 325.7829 147.0942 14.30585337 25782 TUBSAT B 1 22970U 94003B 13145.36272985 -.00000436 00000-0 -11661-2 0 1817 2 22970 82.5629 214.6000 0015128 249.9024 238.8624 13.16937427929279 CERISE 1 23606U 95033B 13145.77475908 .00002621 00000-0 28946-3 0 879 2 23606 98.3467 353.0486 0007240 120.8346 239.3583 14.88363388965513 UPM/LBSAT 1 23607U 95033C 13145.40472065 .00000787 00000-0 12195-3 0 2930 2 23607 98.2331 269.4949 0005320 351.5071 40.1657 14.76033829961081 FAISAT 2V 1 24954U 97052B 13145.81543326 .00000090 00000-0 71340-4 0 7900 2 24954 82.9222 318.1814 0040260 48.8693 75.5267 13.79778378789047 MUBLCOM 1 25736U 99026B 13145.44098598 .00000852 00000-0 24963-3 0 9217 2 25736 97.6740 328.9786 0004112 310.2354 49.8480 14.46012164738502 RUBIN-3 & SL-8 R/B 1 27561U 02054C 13145.48530060 .00000446 00000-0 11353-3 0 9037 2 27561 98.0507 293.8577 0048499 92.5801 298.6647 14.54439903556518 APRIZESAT 2 1 28366U 04025A 13145.40119734 .00000146 00000-0 60884-4 0 4906 2 28366 98.2687 88.7291 0109240 169.9473 337.2399 14.35985352466598 SAUDICOMSAT 1 1 28369U 04025D 13145.00843519 .00000359 00000-0 10057-3 0 5510 2 28369 97.9935 130.2392 0032362 287.5080 104.4921 14.51254714471432 SAUDICOMSAT 2 1 28370U 04025E 13144.93903042 .00000392 00000-0 11889-3 0 5477 2 28370 98.1028 114.7427 0058405 3.9839 29.1721 14.46326434469839 APRIZESAT 1 1 28372U 04025G 13144.97118149 .00000276 00000-0 83806-4 0 5367 2 28372 98.0506 121.4685 0045957 325.8081 66.7068 14.48671572470612 NANOSAT-1 1 28493U 04049B 13144.66854218 .00000808 00000-0 13844-3 0 5597 2 28493 98.3795 161.3662 0005192 48.1539 74.0557 14.71578845452459 SAUDICOMSAT 7 1 31119U 07012C 13145.09521096 .00000567 00000-0 12369-3 0 8565 2 31119 97.8239 160.5610 0062594 60.8978 331.6464 14.60202028325268 SAUDICOMSAT 6 1 31121U 07012E 13145.08797132 .00000544 00000-0 12529-3 0 8533 2 31121 97.8500 150.4117 0079886 94.4475 338.5136 14.57040509324574 SAUDICOMSAT 5 1 31124U 07012H 13145.06563583 .00000566 00000-0 11997-3 0 8627 2 31124 97.8157 166.4331 0053722 44.6619 349.2538 14.61827648325611 SAUDICOMSAT 3 1 31125U 07012J 13145.09979322 .00000582 00000-0 11966-3 0 8751 2 31125 97.8108 172.2217 0044878 28.9589 4.4272 14.63415474325964 SAUDICOMSAT 4 1 31127U 07012L 13145.65757008 .00000558 00000-0 12487-3 0 8628 2 31127 97.8355 156.2885 0070993 75.0954 35.6881 14.58718817325018 APRIZESAT 4 1 35684U 09041D 13144.82318929 .00000644 00000-0 97027-4 0 1967 2 35684 98.0581 61.3247 0049103 196.8868 195.2834 14.77103975205840 APRIZESAT 3 1 35686U 09041F 13144.85668406 .00001012 00000-0 12180-3 0 2192 2 35686 98.1104 78.8005 0078367 157.3114 236.2666 14.84101206206774 AISSAT 1 1 36797U 10035C 13145.81714322 .00001903 00000-0 24473-3 0 1137 2 36797 98.0341 230.1131 0012947 142.5193 217.6914 14.82288588155238